| time (UTC) | temp C | wind direction | speed KPH | gust KPH | rain 1hr cm | rain 24hr cm | rain mn cm | humidity % | barometer mb |
| 20260505200559 | 26 | 205 | 22.5 | 38.6 | 0.00 | 0.15 | 0.15 | 35 | 1008.8 |
| 20260505200106 | 26 | 142 | 19.3 | 38.6 | 0.00 | 0.15 | 0.15 | 34 | 1008.7 |
| 20260505195600 | 27 | 187 | 17.7 | 35.4 | 0.00 | 0.15 | 0.15 | 33 | 1008.7 |
| 20260505195058 | 27 | 211 | 11.3 | 38.6 | 0.00 | 0.15 | 0.15 | 34 | 1008.9 |
| 20260505194607 | 27 | 200 | 16.1 | 41.8 | 0.00 | 0.15 | 0.15 | 33 | 1008.8 |
| 20260505194059 | 27 | 193 | 17.7 | 41.8 | 0.00 | 0.15 | 0.15 | 32 | 1008.7 |
| 20260505193559 | 27 | 254 | 19.3 | 43.5 | 0.00 | 0.15 | 0.15 | 33 | 1008.8 |
| 20260505193103 | 27 | 167 | 11.3 | 43.5 | 0.00 | 0.15 | 0.15 | 33 | 1008.7 |
| 20260505192559 | 27 | 193 | 16.1 | 38.6 | 0.00 | 0.15 | 0.15 | 32 | 1008.7 |
| 20260505192102 | 27 | 211 | 22.5 | 41.8 | 0.00 | 0.15 | 0.15 | 32 | 1008.7 |
| 20260505191557 | 27 | 197 | 17.7 | 41.8 | 0.00 | 0.15 | 0.15 | 33 | 1008.7 |
| 20260505191059 | 27 | 206 | 11.3 | 37.0 | 0.00 | 0.15 | 0.15 | 34 | 1008.9 |
| 20260505190601 | 27 | 143 | 22.5 | 41.8 | 0.00 | 0.15 | 0.15 | 32 | 1009.0 |
| 20260505185559 | 27 | 190 | 24.1 | 45.1 | 0.00 | 0.15 | 0.15 | 32 | 1009.1 |
| 20260505185059 | 27 | 171 | 3.2 | 45.1 | 0.00 | 0.15 | 0.15 | 33 | 1009.2 |
| 20260505184600 | 27 | 210 | 14.5 | 46.7 | 0.00 | 0.15 | 0.15 | 34 | 1009.2 |
| 20260505184059 | 27 | 225 | 19.3 | 46.7 | 0.00 | 0.15 | 0.15 | 34 | 1009.1 |
| 20260505183602 | 27 | 254 | 16.1 | 40.2 | 0.00 | 0.15 | 0.15 | 34 | 1009.1 |
| 20260505183102 | 27 | 205 | 17.7 | 40.2 | 0.00 | 0.15 | 0.15 | 35 | 1009.2 |
| 20260505182559 | 27 | 352 | 11.3 | 46.7 | 0.00 | 0.15 | 0.15 | 35 | 1009.2 |
| 20260505182059 | 27 | 221 | 16.1 | 46.7 | 0.00 | 0.15 | 0.15 | 33 | 1009.3 |
| 20260505181600 | 27 | 168 | 19.3 | 41.8 | 0.00 | 0.15 | 0.15 | 35 | 1009.3 |
| 20260505181059 | 27 | 146 | 16.1 | 43.5 | 0.00 | 0.15 | 0.15 | 35 | 1009.4 |
| 20260505180559 | 27 | 199 | 16.1 | 43.5 | 0.00 | 0.15 | 0.15 | 35 | 1009.8 |
| 20260505175559 | 27 | 198 | 20.9 | 40.2 | 0.00 | 0.15 | 0.15 | 37 | 1009.6 |
| 20260505175059 | 27 | 192 | 14.5 | 29.0 | 0.00 | 0.15 | 0.15 | 40 | 1009.5 |
| 20260505174600 | 27 | 214 | 12.9 | 29.0 | 0.00 | 0.15 | 0.15 | 39 | 1009.7 |
| 20260505174059 | 27 | 173 | 16.1 | 29.0 | 0.00 | 0.15 | 0.15 | 40 | 1009.5 |
| 20260505173558 | 27 | 173 | 8.0 | 29.0 | 0.00 | 0.15 | 0.15 | 41 | 1009.5 |
| 20260505173100 | 27 | 236 | 16.1 | 32.2 | 0.00 | 0.15 | 0.15 | 39 | 1009.6 |
| 20260505172559 | 27 | 222 | 12.9 | 32.2 | 0.00 | 0.15 | 0.15 | 40 | 1009.7 |
| 20260505172058 | 27 | 190 | 11.3 | 32.2 | 0.00 | 0.15 | 0.15 | 41 | 1009.6 |
| 20260505171600 | 27 | 298 | 14.5 | 32.2 | 0.00 | 0.15 | 0.15 | 41 | 1009.7 |
| 20260505171100 | 27 | 190 | 9.7 | 25.7 | 0.00 | 0.15 | 0.15 | 42 | 1009.9 |
| 20260505170600 | 27 | 283 | 11.3 | 25.7 | 0.00 | 0.15 | 0.15 | 42 | 1009.9 |
| 20260505165559 | 26 | 202 | 9.7 | 22.5 | 0.00 | 0.15 | 0.15 | 42 | 1010.0 |
| 20260505165059 | 26 | 288 | 8.0 | 22.5 | 0.00 | 0.15 | 0.15 | 44 | 1010.1 |
| 20260505164630 | 26 | 284 | 4.8 | 22.5 | 0.00 | 0.15 | 0.15 | 43 | 1010.3 |
| 20260505164059 | 26 | 301 | 9.7 | 22.5 | 0.00 | 0.15 | 0.15 | 43 | 1010.4 |
| 20260505163558 | 26 | 242 | 6.4 | 20.9 | 0.00 | 0.15 | 0.15 | 43 | 1010.4 |
| 20260505163058 | 26 | 86 | 4.8 | 22.5 | 0.00 | 0.15 | 0.15 | 44 | 1010.5 |
| 20260505162559 | 26 | 189 | 11.3 | 22.5 | 0.00 | 0.15 | 0.15 | 46 | 1010.5 |
| 20260505162058 | 26 | 209 | 3.2 | 32.2 | 0.00 | 0.15 | 0.15 | 44 | 1010.6 |
| 20260505161601 | 26 | 204 | 9.7 | 32.2 | 0.00 | 0.15 | 0.15 | 45 | 1010.5 |
| 20260505161059 | 26 | 182 | 12.9 | 29.0 | 0.00 | 0.15 | 0.15 | 45 | 1010.5 |
| 20260505160600 | 26 | 146 | 8.0 | 24.1 | 0.00 | 0.15 | 0.15 | 47 | 1010.6 |
| 20260505160109 | 25 | 200 | 3.2 | 32.2 | 0.00 | 0.15 | 0.15 | 46 | 1010.7 |
| 20260505153057 | 25 | 238 | 8.0 | 16.1 | 0.00 | 0.15 | 0.15 | 49 | 1011.1 |
| 20260505152558 | 25 | 229 | 4.8 | 16.1 | 0.00 | 0.15 | 0.15 | 49 | 1011.3 |
| 20260505152058 | 24 | 190 | 4.8 | 16.1 | 0.00 | 0.15 | 0.15 | 49 | 1011.1 |
| 20260505151606 | 24 | 173 | 4.8 | 16.1 | 0.00 | 0.15 | 0.15 | 50 | 1011.1 |
| 20260505151059 | 23 | 224 | 3.2 | 16.1 | 0.00 | 0.15 | 0.15 | 51 | 1011.1 |
| 20260505150559 | 23 | 272 | 1.6 | 19.3 | 0.00 | 0.15 | 0.15 | 51 | 1011.3 |
| 20260505140600 | 21 | 308 | 1.6 | 14.5 | 0.00 | 0.15 | 0.15 | 59 | 1011.7 |
| 20260505140114 | 21 | 204 | 4.8 | 14.5 | 0.00 | 0.15 | 0.15 | 59 | 1011.9 |
| 20260505124605 | 16 | 132 | 3.2 | 6.4 | 0.00 | 0.15 | 0.15 | 81 | 1012.0 |
| 20260505124059 | 16 | 109 | 4.8 | 6.4 | 0.00 | 0.15 | 0.15 | 82 | 1012.1 |
| 20260505123559 | 16 | 132 | 3.2 | 6.4 | 0.00 | 0.15 | 0.15 | 85 | 1012.1 |
| 20260505123100 | 16 | 0 | 1.6 | 6.4 | 0.00 | 0.15 | 0.15 | 84 | 1012.1 |
| 20260505122559 | 15 | 170 | 0.0 | 3.2 | 0.00 | 0.15 | 0.15 | 86 | 1012.0 |
| 20260505122059 | 15 | 0 | 0.0 | 3.2 | 0.00 | 0.15 | 0.15 | 90 | 1012.0 |
| 20260505121600 | 14 | 0 | 0.0 | 1.6 | 0.00 | 0.15 | 0.15 | 91 | 1012.0 |
| 20260505121058 | 13 | 0 | 0.0 | 0.0 | 0.00 | 0.15 | 0.15 | 91 | 1012.0 |
| 20260505120559 | 13 | 0 | 0.0 | 3.2 | 0.00 | 0.15 | 0.15 | 91 | 1012.0 |
| 20260505120113 | 13 | 0 | 0.0 | 3.2 | 0.00 | 0.15 | 0.15 | 92 | 1011.9 |
| 20260505115559 | 13 | 0 | 0.0 | 3.2 | 0.00 | 0.15 | 0.15 | 93 | 1012.0 |
| 20260505115100 | 12 | 182 | 1.6 | 3.2 | 0.00 | 0.15 | 0.15 | 94 | 1011.9 |
| 20260505114601 | 12 | 182 | 0.0 | 3.2 | 0.00 | 0.15 | 0.15 | 95 | 1011.8 |
| 20260505114059 | 12 | 182 | 1.6 | 3.2 | 0.00 | 0.15 | 0.15 | 95 | 1011.8 |
| 20260505113600 | 12 | 182 | 1.6 | 4.8 | 0.00 | 0.15 | 0.15 | 95 | 1011.9 |
| 20260505113058 | 11 | 182 | 1.6 | 4.8 | 0.00 | 0.15 | 0.15 | 95 | 1011.9 |
| 20260505112558 | 11 | 182 | 1.6 | 4.8 | 0.00 | 0.15 | 0.15 | 95 | 1011.9 |
| 20260505112059 | 11 | 182 | 3.2 | 4.8 | 0.00 | 0.15 | 0.15 | 95 | 1011.9 |
| 20260505111601 | 11 | 148 | 0.0 | 3.2 | 0.00 | 0.15 | 0.15 | 96 | 1011.9 |
| 20260505111100 | 11 | 227 | 0.0 | 3.2 | 0.00 | 0.15 | 0.15 | 96 | 1011.9 |
| 20260505110559 | 11 | 227 | 0.0 | 3.2 | 0.00 | 0.15 | 0.15 | 96 | 1011.9 |
| 20260505110108 | 10 | 227 | 1.6 | 4.8 | 0.00 | 0.15 | 0.15 | 96 | 1012.0 |
| 20260505102059 | 10 | 0 | 0.0 | 3.2 | 0.00 | 0.15 | 0.15 | 95 | 1011.8 |
| 20260505101601 | 10 | 207 | 1.6 | 3.2 | 0.00 | 0.15 | 0.15 | 94 | 1011.6 |
| 20260505101059 | 10 | 0 | 0.0 | 3.2 | 0.03 | 0.15 | 0.15 | 94 | 1011.5 |
| 20260505100559 | 10 | 0 | 0.0 | 3.2 | 0.08 | 0.15 | 0.15 | 94 | 1011.6 |
| 20260505100059 | 10 | 207 | 1.6 | 3.2 | 0.10 | 0.15 | 0.15 | 94 | 1011.6 |
| 20260505095559 | 10 | 207 | 1.6 | 3.2 | 0.15 | 0.15 | 0.15 | 95 | 1011.6 |
| 20260505095058 | 10 | 0 | 0.0 | 4.8 | 0.15 | 0.15 | 0.15 | 94 | 1011.7 |
| 20260505094603 | 10 | 207 | 1.6 | 4.8 | 0.15 | 0.15 | 0.15 | 94 | 1011.6 |
| 20260505094059 | 10 | 206 | 3.2 | 4.8 | 0.15 | 0.15 | 0.15 | 93 | 1011.6 |
| 20260505093558 | 10 | 195 | 0.0 | 3.2 | 0.15 | 0.15 | 0.15 | 93 | 1011.4 |
| 20260505093102 | 10 | 0 | 1.6 | 3.2 | 0.15 | 0.15 | 0.15 | 92 | 1011.8 |
| 20260505092602 | 10 | 193 | 3.2 | 8.0 | 0.15 | 0.15 | 0.15 | 92 | 1011.9 |
| 20260505092058 | 10 | 198 | 0.0 | 8.0 | 0.15 | 0.15 | 0.15 | 92 | 1011.8 |
| 20260505091613 | 10 | 197 | 4.8 | 8.0 | 0.15 | 0.15 | 0.15 | 91 | 1011.6 |
| 20260505091058 | 11 | 247 | 1.6 | 4.8 | 0.13 | 0.13 | 0.13 | 89 | 1011.4 |
| 20260505090558 | 11 | 247 | 3.2 | 4.8 | 0.08 | 0.08 | 0.08 | 87 | 1011.6 |
| 20260505090059 | 11 | 178 | 1.6 | 3.2 | 0.00 | 0.00 | 0.00 | 85 | 1011.2 |
| 20260505085558 | 11 | 180 | 1.6 | 3.2 | 0.00 | 0.00 | 0.00 | 84 | 1011.5 |
| 20260505085059 | 11 | 0 | 0.0 | 3.2 | 0.00 | 0.00 | 0.00 | 85 | 1011.4 |
| 20260505084559 | 11 | 0 | 1.6 | 3.2 | 0.00 | 0.00 | 0.00 | 84 | 1011.4 |
| 20260505084100 | 11 | 0 | 1.6 | 4.8 | 0.00 | 0.00 | 0.00 | 84 | 1011.1 |
| 20260505083601 | 11 | 0 | 0.0 | 4.8 | 0.00 | 0.00 | 0.00 | 83 | 1011.0 |
| 20260505083100 | 11 | 186 | 3.2 | 4.8 | 0.00 | 0.00 | 0.00 | 83 | 1011.0 |
| 20260505082559 | 11 | 209 | 0.0 | 3.2 | 0.00 | 0.00 | 0.00 | 82 | 1011.0 |
| 20260505082100 | 11 | 209 | 0.0 | 4.8 | 0.00 | 0.00 | 0.00 | 83 | 1010.9 |
| 20260505081601 | 11 | 0 | 0.0 | 4.8 | 0.00 | 0.00 | 0.00 | 83 | 1010.9 |
| 20260505081100 | 11 | 210 | 3.2 | 4.8 | 0.00 | 0.00 | 0.00 | 83 | 1010.8 |
| 20260505080558 | 11 | 210 | 0.0 | 3.2 | 0.00 | 0.00 | 0.00 | 83 | 1010.8 |
| 20260505080107 | 11 | 210 | 1.6 | 4.8 | 0.00 | 0.00 | 0.00 | 84 | 1010.9 |
| 20260505075558 | 11 | 210 | 0.0 | 4.8 | 0.00 | 0.00 | 0.00 | 85 | 1010.9 |
| 20260505075059 | 11 | 210 | 1.6 | 4.8 | 0.00 | 0.00 | 0.00 | 84 | 1010.9 |
| 20260505074559 | 11 | 210 | 1.6 | 3.2 | 0.00 | 0.00 | 0.00 | 84 | 1010.9 |
| 20260505074059 | 11 | 210 | 1.6 | 3.2 | 0.00 | 0.00 | 0.00 | 84 | 1010.9 |
| 20260505073559 | 11 | 210 | 0.0 | 3.2 | 0.00 | 0.00 | 0.00 | 85 | 1010.9 |
| 20260505073104 | 11 | 0 | 1.6 | 3.2 | 0.00 | 0.00 | 0.00 | 85 | 1011.0 |
| 20260505072559 | 10 | 210 | 0.0 | 4.8 | 0.00 | 0.00 | 0.00 | 85 | 1010.9 |
| 20260505072059 | 10 | 210 | 1.6 | 4.8 | 0.00 | 0.00 | 0.00 | 86 | 1010.8 |
| 20260505071601 | 10 | 209 | 1.6 | 4.8 | 0.00 | 0.00 | 0.00 | 85 | 1010.9 |
| 20260505071100 | 10 | 0 | 0.0 | 0.0 | 0.00 | 0.00 | 0.00 | 86 | 1010.9 |
| 20260505070559 | 10 | 0 | 0.0 | 0.0 | 0.00 | 0.00 | 0.00 | 86 | 1010.9 |
| 20260505070058 | 10 | 0 | 0.0 | 0.0 | 0.00 | 0.00 | 0.00 | 86 | 1010.9 |
| 20260505065559 | 10 | 0 | 0.0 | 0.0 | 0.00 | 0.00 | 0.00 | 86 | 1010.9 |
| 20260505065059 | 10 | 0 | 0.0 | 0.0 | 0.00 | 0.00 | 0.00 | 85 | 1010.9 |
| 20260505064606 | 10 | 0 | 0.0 | 0.0 | 0.00 | 0.00 | 0.00 | 84 | 1011.0 |
| 20260505064059 | 10 | 0 | 0.0 | 3.2 | 0.00 | 0.00 | 0.00 | 83 | 1011.0 |
| 20260505063600 | 10 | 0 | 0.0 | 3.2 | 0.00 | 0.00 | 0.00 | 83 | 1011.0 |
| 20260505063114 | 10 | 237 | 0.0 | 3.2 | 0.00 | 0.00 | 0.00 | 83 | 1011.0 |
| 20260505062559 | 10 | 0 | 1.6 | 3.2 | 0.00 | 0.00 | 0.00 | 83 | 1011.0 |
| 20260505062058 | 10 | 237 | 0.0 | 1.6 | 0.00 | 0.00 | 0.00 | 82 | 1011.1 |
| 20260505061607 | 11 | 0 | 0.0 | 0.0 | 0.00 | 0.00 | 0.00 | 82 | 1011.0 |
| 20260505061059 | 11 | 0 | 0.0 | 0.0 | 0.00 | 0.00 | 0.00 | 82 | 1011.0 |
| 20260505060559 | 11 | 0 | 0.0 | 0.0 | 0.00 | 0.00 | 0.00 | 82 | 1011.0 |
| 20260505060059 | 11 | 0 | 0.0 | 0.0 | 0.00 | 0.00 | 0.00 | 82 | 1011.0 |
| 20260505055559 | 11 | 0 | 0.0 | 1.6 | 0.00 | 0.00 | 0.00 | 82 | 1010.9 |
| 20260505055101 | 11 | 0 | 0.0 | 1.6 | 0.00 | 0.00 | 0.00 | 82 | 1010.9 |
| 20260505054611 | 11 | 0 | 0.0 | 3.2 | 0.00 | 0.00 | 0.00 | 81 | 1011.0 |
| 20260505054103 | 11 | 0 | 0.0 | 3.2 | 0.00 | 0.00 | 0.00 | 80 | 1011.0 |
| 20260505053600 | 11 | 237 | 1.6 | 3.2 | 0.00 | 0.00 | 0.00 | 80 | 1011.0 |
| 20260505053103 | 11 | 0 | 0.0 | 3.2 | 0.00 | 0.00 | 0.00 | 81 | 1011.0 |
| 20260505052559 | 11 | 243 | 0.0 | 3.2 | 0.00 | 0.00 | 0.00 | 79 | 1011.0 |
| 20260505052059 | 11 | 0 | 0.0 | 0.0 | 0.00 | 0.00 | 0.00 | 77 | 1010.9 |
| 20260505051601 | 11 | 0 | 0.0 | 3.2 | 0.00 | 0.00 | 0.00 | 78 | 1011.0 |
| 20260505051059 | 12 | 0 | 0.0 | 3.2 | 0.00 | 0.00 | 0.00 | 77 | 1010.9 |
| 20260505050558 | 12 | 243 | 0.0 | 1.6 | 0.00 | 0.00 | 0.00 | 78 | 1011.0 |
| 20260505041600 | 15 | 173 | 0.0 | 3.2 | 0.00 | 0.00 | 0.00 | 63 | 1010.9 |
| 20260505041101 | 15 | 0 | 0.0 | 4.8 | 0.00 | 0.00 | 0.00 | 61 | 1010.8 |
| 20260505040602 | 15 | 173 | 0.0 | 4.8 | 0.00 | 0.00 | 0.00 | 62 | 1010.8 |
| 20260505040100 | 15 | 175 | 1.6 | 4.8 | 0.00 | 0.00 | 0.00 | 61 | 1010.8 |
| 20260505035559 | 15 | 0 | 0.0 | 6.4 | 0.00 | 0.00 | 0.00 | 60 | 1010.7 |
| 20260505035102 | 15 | 167 | 0.0 | 6.4 | 0.00 | 0.00 | 0.00 | 60 | 1010.7 |
| 20260505034601 | 15 | 213 | 1.6 | 4.8 | 0.00 | 0.00 | 0.00 | 61 | 1010.8 |
| 20260505034104 | 15 | 0 | 1.6 | 4.8 | 0.00 | 0.00 | 0.00 | 61 | 1010.7 |
| 20260505033602 | 15 | 181 | 1.6 | 4.8 | 0.00 | 0.00 | 0.00 | 64 | 1010.7 |
| 20260505033056 | 14 | 0 | 0.0 | 3.2 | 0.00 | 0.00 | 0.00 | 64 | 1010.7 |
| 20260505032559 | 15 | 0 | 0.0 | 3.2 | 0.00 | 0.00 | 0.00 | 64 | 1010.8 |
| 20260505032100 | 15 | 0 | 0.0 | 3.2 | 0.00 | 0.00 | 0.00 | 65 | 1010.8 |
| 20260505031607 | 14 | 159 | 0.0 | 3.2 | 0.00 | 0.00 | 0.00 | 64 | 1010.8 |
| 20260505031059 | 14 | 0 | 0.0 | 3.2 | 0.00 | 0.00 | 0.00 | 64 | 1010.9 |
| 20260505030559 | 13 | 159 | 0.0 | 3.2 | 0.00 | 0.00 | 0.00 | 66 | 1010.9 |
| 20260505030059 | 13 | 0 | 0.0 | 0.0 | 0.00 | 0.00 | 0.00 | 69 | 1010.9 |
| 20260505025559 | 13 | 0 | 0.0 | 0.0 | 0.00 | 0.00 | 0.00 | 69 | 1011.0 |
| 20260505025058 | 13 | 0 | 0.0 | 0.0 | 0.00 | 0.00 | 0.00 | 70 | 1010.9 |
| 20260505024606 | 12 | 0 | 0.0 | 0.0 | 0.00 | 0.00 | 0.00 | 71 | 1011.0 |
| 20260505024059 | 12 | 0 | 0.0 | 0.0 | 0.00 | 0.00 | 0.00 | 73 | 1011.0 |
| 20260505023600 | 12 | 0 | 0.0 | 0.0 | 0.00 | 0.00 | 0.00 | 73 | 1011.0 |
| 20260505023058 | 12 | 0 | 0.0 | 0.0 | 0.00 | 0.00 | 0.00 | 75 | 1011.1 |
| 20260505022559 | 12 | 0 | 0.0 | 0.0 | 0.00 | 0.00 | 0.00 | 74 | 1011.1 |
| 20260505022059 | 12 | 0 | 0.0 | 0.0 | 0.00 | 0.00 | 0.00 | 74 | 1011.2 |
| 20260505021601 | 12 | 0 | 0.0 | 0.0 | 0.00 | 0.00 | 0.00 | 74 | 1011.2 |
| 20260505021058 | 12 | 0 | 0.0 | 0.0 | 0.00 | 0.00 | 0.00 | 73 | 1011.1 |
| 20260505020558 | 12 | 0 | 0.0 | 0.0 | 0.00 | 0.00 | 0.00 | 73 | 1011.1 |
| 20260505020056 | 12 | 0 | 0.0 | 0.0 | 0.00 | 0.00 | 0.00 | 73 | 1011.2 |
| 20260505015559 | 12 | 0 | 0.0 | 0.0 | 0.00 | 0.00 | 0.00 | 73 | 1011.1 |
| 20260505015059 | 13 | 0 | 0.0 | 0.0 | 0.00 | 0.00 | 0.00 | 71 | 1011.0 |
| 20260505014610 | 13 | 0 | 0.0 | 3.2 | 0.00 | 0.00 | 0.00 | 72 | 1011.1 |
| 20260505014100 | 13 | 0 | 0.0 | 3.2 | 0.00 | 0.00 | 0.00 | 72 | 1011.1 |
| 20260505013559 | 13 | 0 | 0.0 | 3.2 | 0.00 | 0.00 | 0.00 | 72 | 1011.0 |
| 20260505013059 | 13 | 0 | 0.0 | 1.6 | 0.00 | 0.00 | 0.00 | 69 | 1010.9 |
| 20260505012600 | 13 | 0 | 0.0 | 0.0 | 0.00 | 0.00 | 0.00 | 69 | 1010.8 |
| 20260505012059 | 13 | 0 | 0.0 | 3.2 | 0.00 | 0.00 | 0.00 | 68 | 1010.8 |
| 20260505011607 | 14 | 0 | 0.0 | 3.2 | 0.00 | 0.00 | 0.00 | 67 | 1010.8 |
| 20260505011100 | 14 | 163 | 0.0 | 3.2 | 0.00 | 0.00 | 0.00 | 65 | 1010.7 |
| 20260505010558 | 15 | 163 | 0.0 | 0.0 | 0.00 | 0.00 | 0.00 | 65 | 1010.6 |
| 20260505010109 | 15 | 0 | 0.0 | 0.0 | 0.00 | 0.00 | 0.00 | 66 | 1010.6 |
| 20260505005600 | 15 | 0 | 0.0 | 0.0 | 0.00 | 0.00 | 0.00 | 64 | 1010.5 |
| 20260505005102 | 16 | 0 | 0.0 | 3.2 | 0.00 | 0.00 | 0.00 | 60 | 1010.4 |
| 20260505004602 | 16 | 0 | 0.0 | 3.2 | 0.00 | 0.00 | 0.00 | 64 | 1010.4 |
| 20260505004100 | 16 | 163 | 0.0 | 3.2 | 0.00 | 0.00 | 0.00 | 59 | 1010.4 |
| 20260505003559 | 17 | 162 | 1.6 | 3.2 | 0.00 | 0.00 | 0.00 | 53 | 1010.3 |
| 20260505003059 | 17 | 0 | 0.0 | 3.2 | 0.00 | 0.00 | 0.00 | 51 | 1010.3 |
| 20260505002600 | 18 | 162 | 0.0 | 3.2 | 0.00 | 0.00 | 0.00 | 51 | 1010.3 |
| 20260505002058 | 18 | 162 | 0.0 | 3.2 | 0.00 | 0.00 | 0.00 | 49 | 1010.4 |
| 20260505001559 | 18 | 162 | 0.0 | 3.2 | 0.00 | 0.00 | 0.00 | 49 | 1010.2 |
| 20260505001059 | 19 | 163 | 0.0 | 8.0 | 0.00 | 0.00 | 0.00 | 48 | 1010.2 |
| 20260505000558 | 19 | 163 | 3.2 | 9.7 | 0.00 | 0.00 | 0.00 | 47 | 1010.2 |
| 20260505000116 | 20 | 190 | 1.6 | 9.7 | 0.00 | 0.00 | 0.00 | 46 | 1010.1 |
| 20260504235601 | 20 | 169 | 4.8 | 9.7 | 0.00 | 0.00 | 0.00 | 44 | 1010.1 |
| 20260504235102 | 20 | 182 | 3.2 | 11.3 | 0.00 | 0.00 | 0.00 | 44 | 1010.0 |
| 20260504234559 | 20 | 157 | 4.8 | 14.5 | 0.00 | 0.00 | 0.00 | 43 | 1010.0 |
| 20260504234100 | 20 | 200 | 6.4 | 14.5 | 0.00 | 0.00 | 0.00 | 43 | 1010.0 |
| 20260504233558 | 20 | 184 | 6.4 | 17.7 | 0.00 | 0.00 | 0.00 | 43 | 1009.9 |
| 20260504233108 | 20 | 173 | 4.8 | 20.9 | 0.00 | 0.00 | 0.00 | 43 | 1009.8 |
| 20260504232600 | 21 | 165 | 8.0 | 20.9 | 0.00 | 0.00 | 0.00 | 42 | 1009.7 |
| 20260504232100 | 21 | 190 | 11.3 | 20.9 | 0.00 | 0.00 | 0.00 | 42 | 1009.7 |
| 20260504231609 | 21 | 180 | 8.0 | 20.9 | 0.00 | 0.00 | 0.00 | 42 | 1009.7 |
| 20260504231059 | 21 | 211 | 9.7 | 20.9 | 0.00 | 0.00 | 0.00 | 41 | 1009.6 |
| 20260504230559 | 21 | 169 | 9.7 | 20.9 | 0.00 | 0.00 | 0.00 | 42 | 1009.6 |
| 20260504230100 | 21 | 191 | 11.3 | 24.1 | 0.00 | 0.00 | 0.00 | 41 | 1009.6 |
| 20260504225559 | 21 | 184 | 9.7 | 24.1 | 0.00 | 0.00 | 0.00 | 42 | 1009.6 |
| 20260504225059 | 21 | 213 | 9.7 | 19.3 | 0.00 | 0.00 | 0.00 | 41 | 1009.6 |
| 20260504224609 | 21 | 168 | 8.0 | 22.5 | 0.00 | 0.00 | 0.00 | 42 | 1009.6 |
| 20260504224059 | 21 | 199 | 9.7 | 24.1 | 0.00 | 0.00 | 0.00 | 41 | 1009.6 |
| 20260504223559 | 21 | 188 | 12.9 | 24.1 | 0.00 | 0.00 | 0.00 | 41 | 1009.6 |
| 20260504223134 | 21 | 160 | 11.3 | 22.5 | 0.00 | 0.00 | 0.00 | 42 | 1009.6 |
| 20260504222559 | 21 | 134 | 9.7 | 22.5 | 0.00 | 0.00 | 0.00 | 41 | 1009.6 |
| 20260504222100 | 21 | 205 | 9.7 | 22.5 | 0.00 | 0.00 | 0.00 | 41 | 1009.7 |
| 20260504221558 | 21 | 167 | 9.7 | 27.4 | 0.00 | 0.00 | 0.00 | 41 | 1009.7 |
| 20260504221103 | 21 | 219 | 11.3 | 25.7 | 0.00 | 0.00 | 0.00 | 41 | 1009.8 |
| 20260504220600 | 21 | 180 | 11.3 | 24.1 | 0.00 | 0.00 | 0.00 | 40 | 1009.8 |
| 20260504220059 | 22 | 215 | 12.9 | 24.1 | 0.00 | 0.00 | 0.00 | 41 | 1009.7 |
| 20260504215559 | 22 | 184 | 8.0 | 24.1 | 0.00 | 0.00 | 0.00 | 40 | 1009.8 |
| 20260504215058 | 22 | 180 | 14.5 | 24.1 | 0.00 | 0.00 | 0.00 | 39 | 1009.8 |
| 20260504214558 | 22 | 202 | 9.7 | 19.3 | 0.00 | 0.00 | 0.00 | 39 | 1009.9 |
| 20260504214059 | 22 | 197 | 8.0 | 17.7 | 0.00 | 0.00 | 0.00 | 39 | 1009.8 |
| 20260504213559 | 22 | 209 | 6.4 | 17.7 | 0.00 | 0.00 | 0.00 | 39 | 1009.9 |
| 20260504213106 | 22 | 286 | 8.0 | 27.4 | 0.00 | 0.00 | 0.00 | 38 | 1010.0 |
| 20260504212559 | 22 | 210 | 9.7 | 27.4 | 0.00 | 0.00 | 0.00 | 38 | 1010.0 |
| 20260504212058 | 22 | 275 | 8.0 | 19.3 | 0.00 | 0.00 | 0.00 | 38 | 1010.0 |
| 20260504211601 | 22 | 193 | 6.4 | 20.9 | 0.00 | 0.00 | 0.00 | 39 | 1009.9 |
| 20260504211059 | 22 | 179 | 12.9 | 24.1 | 0.00 | 0.00 | 0.00 | 38 | 1009.8 |
| 20260504210601 | 22 | 156 | 16.1 | 24.1 | 0.00 | 0.00 | 0.00 | 38 | 1009.9 |
| 20260504210109 | 22 | 150 | 11.3 | 22.5 | 0.00 | 0.00 | 0.00 | 37 | 1009.9 |
| 20260504205603 | 22 | 227 | 9.7 | 20.9 | 0.00 | 0.00 | 0.00 | 37 | 1010.0 |
| 20260504205059 | 22 | 309 | 3.2 | 30.6 | 0.00 | 0.00 | 0.00 | 38 | 1010.1 |
| 20260504204601 | 22 | 257 | 9.7 | 30.6 | 0.00 | 0.00 | 0.00 | 38 | 1010.1 |
| 20260504204059 | 22 | 291 | 6.4 | 25.7 | 0.00 | 0.00 | 0.00 | 38 | 1010.2 |
| 20260504203559 | 22 | 221 | 9.7 | 25.7 | 0.00 | 0.00 | 0.00 | 39 | 1010.2 |
| 20260504203112 | 21 | 249 | 4.8 | 27.4 | 0.00 | 0.00 | 0.00 | 38 | 1010.4 |
| 20260504202559 | 22 | 227 | 8.0 | 27.4 | 0.00 | 0.00 | 0.00 | 38 | 1010.2 |
| 20260504202100 | 22 | 207 | 12.9 | 27.4 | 0.00 | 0.00 | 0.00 | 37 | 1010.4 |
| 20260504201609 | 22 | 216 | 6.4 | 27.4 | 0.00 | 0.00 | 0.00 | 37 | 1010.3 |
| 20260504201100 | 22 | 253 | 11.3 | 37.0 | 0.00 | 0.00 | 0.00 | 37 | 1010.2 |